When you browse on this site, cookies collect data to enhance your experience and personalize the content and advertising you see.
Visit our Privacy Policy to learn more. By continuing to use the site, you agree to this use of cookies and data.
  • In Spain
  • List of Countries
  • For 7 days
  • Water Temperature
  • Satellite Maps
  • Weather Map
  • Weather Widgets
  • user-avatar
    Login

    Hourly Weather Maksaky

    Today, 23 March, Saturday

    Time Temperature Precipitation Wind Pressure Humidity
    00:00 -1°C° 0 mm 6 mps 754 mmHg 65%
    01:00 -1°C° 0 mm 6 mps 754 mmHg 67%
    02:00 -1°C° 0 mm 4 mps 754 mmHg 76%
    03:00 -2°C° 0 mm 5 mps 754 mmHg 76%
    04:00 -2°C° 0 mm 5 mps 754 mmHg 77%
    05:00 -3°C° 0 mm 6 mps 755 mmHg 77%
    06:00 -2°C° 0 mm 7 mps 755 mmHg 75%
    07:00 -2°C° 0 mm 7 mps 755 mmHg 73%
    08:00 -1°C° 0 mm 8 mps 755 mmHg 71%
    09:00 -1°C° 0 mm 7 mps 755 mmHg 69%
    10:00 0°C° 0 mm 7 mps 755 mmHg 67%
    11:00 +2°C° 0 mm 7 mps 756 mmHg 65%
    12:00 +2°C° 0 mm 7 mps 756 mmHg 64%
    13:00 +3°C° 0 mm 7 mps 756 mmHg 62%
    14:00 +3°C° 0 mm 6 mps 756 mmHg 61%
    15:00 +3°C° 0 mm 6 mps 756 mmHg 62%
    16:00 +3°C° 0 mm 5 mps 756 mmHg 64%
    17:00 +3°C° 0 mm 5 mps 756 mmHg 65%
    18:00 +3°C° 0 mm 4 mps 756 mmHg 71%
    19:00 +1°C° 0 mm 4 mps 757 mmHg 77%
    20:00 +1°C° 0 mm 3 mps 757 mmHg 82%
    21:00 0°C° 0 mm 3 mps 757 mmHg 84%
    22:00 +1°C° 0 mm 2 mps 757 mmHg 86%
    23:00 -1°C° 0 mm 2 mps 756 mmHg 88%

    Tomorrow, 24 March, Sunday

    Time Temperature Precipitation Wind Pressure Humidity
    00:00 -1°C° 0 mm 2 mps 756 mmHg 88%
    01:00 +1°C° 0 mm 1 mps 756 mmHg 88%
    02:00 +1°C° 0 mm 1 mps 756 mmHg 88%
    03:00 +1°C° 0 mm 1 mps 755 mmHg 87%
    04:00 -1°C° 0 mm 2 mps 755 mmHg 86%
    05:00 -1°C° 0 mm 2 mps 754 mmHg 85%
    06:00 0°C° 0 mm 3 mps 754 mmHg 81%
    07:00 +1°C° 0 mm 3 mps 754 mmHg 77%
    08:00 +1°C° 0 mm 4 mps 753 mmHg 73%
    09:00 +1°C° 0.2 mm 4 mps 753 mmHg 71%
    10:00 +3°C° 0.2 mm 4 mps 752 mmHg 70%
    11:00 +2°C° 0.2 mm 5 mps 752 mmHg 68%
    12:00 +4°C° 0 mm 4 mps 752 mmHg 69%
    13:00 +5°C° 0 mm 4 mps 751 mmHg 69%
    14:00 +5°C° 0 mm 4 mps 751 mmHg 70%
    15:00 +6°C° 0 mm 4 mps 751 mmHg 68%
    16:00 +7°C° 0 mm 3 mps 751 mmHg 65%
    17:00 +8°C° 0 mm 3 mps 751 mmHg 63%
    18:00 +5°C° 0 mm 3 mps 751 mmHg 67%
    19:00 +4°C° 0 mm 3 mps 751 mmHg 70%
    20:00 +4°C° 0 mm 2 mps 752 mmHg 73%
    21:00 +4°C° 0 mm 2 mps 752 mmHg 73%
    22:00 +4°C° 0 mm 2 mps 752 mmHg 73%
    23:00 +4°C° 0 mm 2 mps 752 mmHg 73%

    Day after tomorrow, 25 March, Monday

    Time Temperature Precipitation Wind Pressure Humidity
    00:00 +3°C° 0 mm 2 mps 751 mmHg 74%
    01:00 +3°C° 0 mm 2 mps 751 mmHg 75%
    02:00 +3°C° 0 mm 1 mps 751 mmHg 75%
    03:00 +3°C° 0 mm 1 mps 751 mmHg 75%
    04:00 +2°C° 0 mm 1 mps 751 mmHg 75%
    05:00 +1°C° 0 mm 0 mps 751 mmHg 75%
    06:00 +2°C° 0 mm 0 mps 751 mmHg 71%
    07:00 +4°C° 0 mm 1 mps 750 mmHg 67%
    08:00 +5°C° 0 mm 1 mps 750 mmHg 63%
    09:00 +6°C° 0 mm 1 mps 750 mmHg 59%
    10:00 +7°C° 0 mm 1 mps 750 mmHg 55%
    11:00 +7°C° 0 mm 2 mps 750 mmHg 51%
    12:00 +8°C° 0 mm 2 mps 749 mmHg 48%
    13:00 +8°C° 0 mm 2 mps 749 mmHg 45%
    14:00 +9°C° 0 mm 2 mps 748 mmHg 43%
    15:00 +10°C° 0 mm 1 mps 748 mmHg 46%
    16:00 +9°C° 0 mm 1 mps 748 mmHg 49%
    17:00 +9°C° 0 mm 1 mps 748 mmHg 52%
    18:00 +8°C° 0 mm 1 mps 748 mmHg 56%
    19:00 +8°C° 0 mm 1 mps 748 mmHg 61%
    20:00 +6°C° 0 mm 2 mps 748 mmHg 66%
    21:00 +5°C° 0 mm 2 mps 748 mmHg 70%
    22:00 +5°C° 0 mm 2 mps 748 mmHg 74%
    23:00 +4°C° 0 mm 2 mps 748 mmHg 77%

    26 March, Tuesday

    Time Temperature Precipitation Wind Pressure Humidity
    00:00 +4°C° 0.2 mm 2 mps 747 mmHg 80%
    01:00 +4°C° 0.2 mm 2 mps 747 mmHg 83%
    02:00 +3°C° 0.2 mm 3 mps 747 mmHg 85%
    03:00 +3°C° 0.1 mm 2 mps 747 mmHg 88%
    04:00 +3°C° 0.1 mm 2 mps 747 mmHg 90%
    05:00 +2°C° 0.1 mm 2 mps 747 mmHg 92%
    06:00 +2°C° 0 mm 3 mps 747 mmHg 88%
    07:00 +3°C° 0 mm 3 mps 747 mmHg 85%
    08:00 +4°C° 0 mm 4 mps 747 mmHg 81%
    09:00 +4°C° 0 mm 4 mps 747 mmHg 75%
    10:00 +5°C° 0 mm 5 mps 747 mmHg 69%
    11:00 +5°C° 0 mm 6 mps 747 mmHg 63%
    12:00 +5°C° 0.1 mm 6 mps 747 mmHg 59%
    13:00 +7°C° 0.1 mm 6 mps 747 mmHg 54%
    14:00 +7°C° 0.1 mm 6 mps 747 mmHg 50%
    15:00 +5°C° 0.3 mm 6 mps 748 mmHg 54%
    16:00 +4°C° 0.3 mm 7 mps 748 mmHg 58%
    17:00 +2°C° 0.3 mm 8 mps 748 mmHg 62%
    18:00 +2°C° 0.1 mm 7 mps 749 mmHg 63%
    19:00 +1°C° 0.1 mm 6 mps 749 mmHg 65%
    20:00 -1°C° 0.1 mm 6 mps 750 mmHg 67%
    21:00 0°C° 0 mm 5 mps 750 mmHg 67%
    22:00 -1°C° 0 mm 5 mps 750 mmHg 67%
    23:00 -1°C° 0 mm 4 mps 750 mmHg 66%

    27 March, Wednesday

    Time Temperature Precipitation Wind Pressure Humidity
    00:00 -2°C° 0 mm 4 mps 750 mmHg 67%
    01:00 -2°C° 0 mm 4 mps 751 mmHg 68%
    02:00 -2°C° 0 mm 4 mps 751 mmHg 69%
    03:00 -2°C° 0.1 mm 5 mps 751 mmHg 71%
    04:00 -1°C° 0.1 mm 5 mps 751 mmHg 73%
    05:00 -2°C° 0.1 mm 6 mps 751 mmHg 75%
    06:00 -2°C° 0.1 mm 6 mps 751 mmHg 73%
    07:00 -2°C° 0.1 mm 6 mps 751 mmHg 71%
    08:00 -2°C° 0.1 mm 6 mps 751 mmHg 68%
    09:00 -1°C° 0 mm 6 mps 752 mmHg 65%
    10:00 -1°C° 0 mm 6 mps 752 mmHg 62%
    11:00 +1°C° 0 mm 6 mps 753 mmHg 58%
    12:00 +1°C° 0.2 mm 6 mps 753 mmHg 57%
    13:00 +2°C° 0.2 mm 6 mps 753 mmHg 56%
    14:00 +2°C° 0.2 mm 6 mps 754 mmHg 55%
    15:00 +2°C° 0.1 mm 6 mps 754 mmHg 54%
    16:00 +2°C° 0.1 mm 5 mps 755 mmHg 52%
    17:00 +1°C° 0.1 mm 4 mps 755 mmHg 50%
    18:00 0°C° 0 mm 4 mps 756 mmHg 55%
    19:00 -1°C° 0 mm 4 mps 757 mmHg 59%
    20:00 -1°C° 0 mm 3 mps 758 mmHg 63%
    21:00 -1°C° 0 mm 3 mps 758 mmHg 64%
    22:00 -2°C° 0 mm 3 mps 758 mmHg 65%
    23:00 -2°C° 0 mm 3 mps 759 mmHg 66%

    28 March, Thursday

    Time Temperature Precipitation Wind Pressure Humidity
    00:00 -2°C° 0 mm 3 mps 759 mmHg 66%
    01:00 -2°C° 0 mm 3 mps 759 mmHg 67%
    02:00 -2°C° 0 mm 3 mps 760 mmHg 67%
    03:00 -4°C° 0 mm 3 mps 760 mmHg 67%
    04:00 -4°C° 0 mm 3 mps 760 mmHg 68%
    05:00 -4°C° 0 mm 3 mps 761 mmHg 68%
    06:00 -2°C° 0 mm 3 mps 761 mmHg 63%
    07:00 -1°C° 0 mm 3 mps 761 mmHg 57%
    08:00 -1°C° 0 mm 4 mps 762 mmHg 52%
    09:00 0°C° 0 mm 4 mps 762 mmHg 47%
    10:00 +1°C° 0 mm 4 mps 762 mmHg 42%
    11:00 +3°C° 0 mm 4 mps 762 mmHg 37%
    12:00 +3°C° 0 mm 5 mps 762 mmHg 36%
    13:00 +3°C° 0 mm 5 mps 762 mmHg 35%
    14:00 +5°C° 0 mm 5 mps 761 mmHg 34%
    15:00 +5°C° 0 mm 4 mps 761 mmHg 39%
    16:00 +4°C° 0 mm 4 mps 761 mmHg 43%
    17:00 +4°C° 0 mm 3 mps 761 mmHg 48%
    18:00 +3°C° 0 mm 3 mps 761 mmHg 53%
    19:00 +2°C° 0 mm 3 mps 761 mmHg 58%
    20:00 +1°C° 0 mm 3 mps 761 mmHg 63%
    21:00 0°C° 0 mm 3 mps 761 mmHg 65%
    22:00 0°C° 0 mm 3 mps 761 mmHg 67%
    23:00 0°C° 0 mm 3 mps 761 mmHg 69%
    Show more